Location: Ariel
(45.9570°N, 122.5700°W)
Time: 02:37:53
(UTC-07:00)

Transit 2A Rocket - Pass Details

Date: 27 July 2019
Orbit: 591 x 912 km, 66.7° (Epoch: 25 August)

Event Time Altitude Azimuth Distance (km) Brightness Sun altitude
Exits shadow 02:29:39 44° 162° (SSE) 1,199 5.6 -22.8°
Maximum altitude 02:31:05 54° 117° (ESE) 1,040 5.5 -22.7°
Drops below altitude 10° 02:36:34 10° 41° (NE) 2,421 8.5 -22.4°
Sets 02:38:57 0° 37° (NE) 3,309 9.6 -22.2°
